• In Uzbekistan
  • List of Countries
  • For 7 days
  • Water Temperature
  • Satellite Maps
  • Weather Map
  • Weather Widgets
  • user-avatar
    Login

    Hourly Weather Kara

    Today, 21 June, Thursday

    Time Temperature Precipitation Wind Pressure Humidity
    00:00 +12°C° 0 mm 2 mps 637 mmHg 79%
    01:00 +12°C° 0 mm 2 mps 637 mmHg 79%
    02:00 +10°C° 0 mm 2 mps 637 mmHg 78%
    03:00 +10°C° 0 mm 2 mps 636 mmHg 72%
    04:00 +12°C° 0 mm 2 mps 636 mmHg 71%
    05:00 +13°C° 0 mm 2 mps 637 mmHg 69%
    06:00 +14°C° 0 mm 2 mps 637 mmHg 68%
    07:00 +16°C° 0 mm 2 mps 638 mmHg 59%
    08:00 +19°C° 0 mm 1 mps 639 mmHg 51%
    09:00 +21°C° 0 mm 1 mps 639 mmHg 43%
    10:00 +20°C° 0 mm 2 mps 639 mmHg 43%
    11:00 +21°C° 0 mm 2 mps 639 mmHg 43%
    12:00 +22°C° 0 mm 3 mps 639 mmHg 43%
    13:00 +21°C° 0 mm 2 mps 639 mmHg 45%
    14:00 +21°C° 0 mm 2 mps 639 mmHg 47%
    15:00 +21°C° 0 mm 2 mps 639 mmHg 50%
    16:00 +21°C° 0 mm 2 mps 639 mmHg 55%
    17:00 +20°C° 0 mm 2 mps 638 mmHg 59%
    18:00 +20°C° 0 mm 1 mps 638 mmHg 64%
    19:00 +19°C° 0 mm 1 mps 638 mmHg 66%
    20:00 +16°C° 0 mm 2 mps 637 mmHg 68%
    21:00 +14°C° 0 mm 2 mps 636 mmHg 70%
    22:00 +14°C° 0 mm 2 mps 636 mmHg 71%
    23:00 +14°C° 0 mm 2 mps 636 mmHg 72%

    Tomorrow, 22 June, Friday

    Time Temperature Precipitation Wind Pressure Humidity
    00:00 +13°C° 0 mm 2 mps 636 mmHg 72%
    01:00 +13°C° 0 mm 2 mps 636 mmHg 70%
    02:00 +13°C° 0 mm 2 mps 636 mmHg 68%
    03:00 +13°C° 0 mm 2 mps 635 mmHg 66%
    04:00 +14°C° 0 mm 2 mps 636 mmHg 64%
    05:00 +15°C° 0 mm 2 mps 636 mmHg 62%
    06:00 +16°C° 0 mm 2 mps 636 mmHg 61%
    07:00 +17°C° 0 mm 2 mps 637 mmHg 55%
    08:00 +19°C° 0 mm 2 mps 637 mmHg 50%
    09:00 +21°C° 0 mm 2 mps 638 mmHg 45%
    10:00 +23°C° 0 mm 2 mps 638 mmHg 45%
    11:00 +22°C° 0 mm 3 mps 638 mmHg 46%
    12:00 +24°C° 0 mm 3 mps 638 mmHg 47%
    13:00 +22°C° 0.2 mm 3 mps 637 mmHg 48%
    14:00 +22°C° 0.2 mm 3 mps 637 mmHg 49%
    15:00 +22°C° 0.2 mm 3 mps 637 mmHg 51%
    16:00 +21°C° 0.5 mm 2 mps 636 mmHg 55%
    17:00 +21°C° 0.5 mm 2 mps 636 mmHg 59%
    18:00 +20°C° 0.5 mm 2 mps 636 mmHg 64%
    19:00 +18°C° 0.4 mm 2 mps 636 mmHg 66%
    20:00 +17°C° 0.4 mm 2 mps 635 mmHg 68%
    21:00 +16°C° 0.4 mm 2 mps 635 mmHg 70%
    22:00 +15°C° 0.1 mm 2 mps 635 mmHg 70%
    23:00 +15°C° 0.1 mm 2 mps 635 mmHg 70%

    Day after tomorrow, 23 June, Saturday

    Time Temperature Precipitation Wind Pressure Humidity
    00:00 +14°C° 0.1 mm 1 mps 634 mmHg 71%
    01:00 +14°C° 0 mm 2 mps 634 mmHg 71%
    02:00 +14°C° 0 mm 2 mps 634 mmHg 70%
    03:00 +13°C° 0 mm 2 mps 634 mmHg 70%
    04:00 +15°C° 0 mm 2 mps 635 mmHg 69%
    05:00 +16°C° 0 mm 1 mps 635 mmHg 68%
    06:00 +18°C° 0 mm 1 mps 635 mmHg 67%
    07:00 +18°C° 0 mm 2 mps 636 mmHg 61%
    08:00 +20°C° 0 mm 2 mps 636 mmHg 55%
    09:00 +23°C° 0 mm 2 mps 637 mmHg 49%
    10:00 +23°C° 0.3 mm 2 mps 637 mmHg 49%
    11:00 +24°C° 0.3 mm 3 mps 637 mmHg 49%
    12:00 +24°C° 0.3 mm 3 mps 637 mmHg 49%
    13:00 +24°C° 0.6 mm 3 mps 637 mmHg 51%
    14:00 +24°C° 0.6 mm 3 mps 636 mmHg 53%
    15:00 +22°C° 0.6 mm 3 mps 636 mmHg 55%
    16:00 +23°C° 0.3 mm 2 mps 636 mmHg 58%
    17:00 +21°C° 0.3 mm 2 mps 636 mmHg 62%
    18:00 +20°C° 0.3 mm 2 mps 635 mmHg 66%
    19:00 +18°C° 0.1 mm 2 mps 635 mmHg 68%
    20:00 +17°C° 0.1 mm 2 mps 635 mmHg 70%
    21:00 +15°C° 0.1 mm 2 mps 635 mmHg 72%
    22:00 +15°C° 0 mm 2 mps 635 mmHg 70%
    23:00 +15°C° 0 mm 2 mps 635 mmHg 67%

    24 June, Sunday

    Time Temperature Precipitation Wind Pressure Humidity
    00:00 +14°C° 0 mm 2 mps 634 mmHg 64%
    01:00 +14°C° 0 mm 2 mps 634 mmHg 63%
    02:00 +14°C° 0 mm 2 mps 634 mmHg 62%
    03:00 +14°C° 0 mm 2 mps 635 mmHg 60%
    04:00 +15°C° 0 mm 2 mps 635 mmHg 61%
    05:00 +16°C° 0 mm 2 mps 635 mmHg 62%
    06:00 +17°C° 0 mm 2 mps 636 mmHg 63%
    07:00 +19°C° 0 mm 2 mps 636 mmHg 58%
    08:00 +21°C° 0 mm 2 mps 637 mmHg 54%
    09:00 +23°C° 0 mm 2 mps 638 mmHg 49%
    10:00 +24°C° 0.1 mm 2 mps 638 mmHg 49%
    11:00 +25°C° 0.1 mm 2 mps 638 mmHg 50%
    12:00 +25°C° 0.1 mm 3 mps 638 mmHg 51%
    13:00 +25°C° 0.4 mm 2 mps 638 mmHg 52%
    14:00 +25°C° 0.4 mm 2 mps 638 mmHg 53%
    15:00 +25°C° 0.4 mm 2 mps 638 mmHg 54%
    16:00 +24°C° 0.3 mm 2 mps 637 mmHg 58%
    17:00 +23°C° 0.3 mm 2 mps 637 mmHg 61%
    18:00 +22°C° 0.3 mm 1 mps 637 mmHg 65%
    19:00 +21°C° 0.1 mm 1 mps 637 mmHg 69%
    20:00 +19°C° 0.1 mm 1 mps 637 mmHg 73%
    21:00 +16°C° 0.1 mm 1 mps 637 mmHg 77%
    22:00 +16°C° 0 mm 1 mps 637 mmHg 75%
    23:00 +16°C° 0 mm 1 mps 637 mmHg 74%

    25 June, Monday

    Time Temperature Precipitation Wind Pressure Humidity
    00:00 +16°C° 0 mm 1 mps 637 mmHg 72%
    01:00 +15°C° 0 mm 1 mps 636 mmHg 70%
    02:00 +15°C° 0 mm 2 mps 636 mmHg 68%
    03:00 +15°C° 0 mm 2 mps 636 mmHg 66%
    04:00 +16°C° 0 mm 2 mps 637 mmHg 65%
    05:00 +18°C° 0 mm 1 mps 637 mmHg 64%
    06:00 +19°C° 0 mm 1 mps 638 mmHg 63%
    07:00 +20°C° 0 mm 2 mps 638 mmHg 59%
    08:00 +21°C° 0 mm 2 mps 639 mmHg 55%
    09:00 +24°C° 0 mm 2 mps 639 mmHg 51%
    10:00 +24°C° 0.2 mm 2 mps 639 mmHg 51%
    11:00 +25°C° 0.2 mm 2 mps 639 mmHg 51%
    12:00 +25°C° 0.2 mm 3 mps 639 mmHg 51%
    13:00 +25°C° 0.6 mm 3 mps 639 mmHg 52%
    14:00 +25°C° 0.6 mm 2 mps 639 mmHg 54%
    15:00 +25°C° 0.6 mm 2 mps 639 mmHg 55%
    16:00 +24°C° 0.3 mm 2 mps 639 mmHg 58%
    17:00 +24°C° 0.3 mm 2 mps 639 mmHg 61%
    18:00 +23°C° 0.3 mm 1 mps 638 mmHg 65%
    19:00 +21°C° 0.2 mm 1 mps 638 mmHg 69%
    20:00 +19°C° 0.2 mm 1 mps 638 mmHg 73%
    21:00 +18°C° 0.2 mm 1 mps 637 mmHg 77%
    22:00 +18°C° 0 mm 1 mps 637 mmHg 76%
    23:00 +16°C° 0 mm 2 mps 637 mmHg 75%

    26 June, Tuesday

    Time Temperature Precipitation Wind Pressure Humidity
    00:00 +16°C° 0 mm 2 mps 637 mmHg 74%
    01:00 +16°C° 0 mm 2 mps 636 mmHg 72%
    02:00 +16°C° 0 mm 2 mps 636 mmHg 70%
    03:00 +16°C° 0 mm 2 mps 636 mmHg 68%
    04:00 +17°C° 0 mm 2 mps 636 mmHg 67%
    05:00 +18°C° 0 mm 2 mps 637 mmHg 65%
    06:00 +19°C° 0 mm 2 mps 637 mmHg 64%
    07:00 +21°C° 0 mm 2 mps 637 mmHg 57%
    08:00 +24°C° 0 mm 2 mps 638 mmHg 50%
    09:00 +26°C° 0 mm 2 mps 638 mmHg 43%
    10:00 +26°C° 0 mm 2 mps 638 mmHg 43%
    11:00 +27°C° 0 mm 2 mps 638 mmHg 43%
    12:00 +28°C° 0 mm 2 mps 638 mmHg 44%
    13:00 +27°C° 0.2 mm 2 mps 638 mmHg 45%
    14:00 +27°C° 0.2 mm 2 mps 638 mmHg 46%
    15:00 +27°C° 0.2 mm 2 mps 637 mmHg 48%
    16:00 +26°C° 0.2 mm 2 mps 637 mmHg 53%
    17:00 +26°C° 0.2 mm 2 mps 637 mmHg 57%
    18:00 +25°C° 0.2 mm 1 mps 637 mmHg 62%
    19:00 +23°C° 0.1 mm 1 mps 637 mmHg 66%
    20:00 +21°C° 0.1 mm 1 mps 636 mmHg 71%
    21:00 +19°C° 0.1 mm 1 mps 636 mmHg 75%
    22:00 +19°C° 0 mm 1 mps 636 mmHg 73%
    23:00 +18°C° 0 mm 2 mps 635 mmHg 71%
    Show more